Temperature
28 28 28 28 29 28 28 28 28 28 29 28 28 27 27 27 26 25 25 25 24 23 23 22 21 20 20 19 19 18 18 17 17 17 16 16 16 16 16 15 15 15 15 15
28 28 29 30 30 29 29 28 28 28 29 29 28 27 27 26 26 25 24 24 24 23 22 22 21 20 20 19 18 18 17 17 17 16 16 16 16 15 15 15 15 15 14 14
28 30 30 30 30 29 28 28 28 27 28 28 28 26 26 26 25 25 24 24 24 23 22 21 21 20 19 19 18 18 17 17 17 16 16 16 15 15 15 15 14 14 14 14
29 30 30 29 29 28 27 28 28 28 27 27 27 26 25 25 25 25 24 24 23 23 22 21 20 20 19 18 18 17 17 17 16 16 16 15 15 15 15 15 14 14 14 14
29 30 29 28 29 28 28 29 29 28 28 27 27 26 26 25 24 24 23 23 22 22 21 21 20 19 19 18 18 17 17 16 16 16 15 15 15 15 14 14 14 14 14 14
29 30 30 29 29 29 29 28 28 28 28 26 27 26 25 24 24 23 23 22 21 21 21 20 20 19 18 18 17 17 16 16 16 15 15 15 14 14 14 14 14 14 14 13
28 29 29 29 28 29 28 27 25 25 25 25 27 26 24 24 24 23 22 21 21 21 20 20 19 19 18 17 17 16 16 16 15 15 14 14 14 14 14 14 14 13 13 13
26 26 28 29 28 27 27 26 24 23 24 25 26 25 24 24 24 22 21 21 20 20 20 19 19 18 17 17 16 16 15 15 15 14 14 14 14 14 14 14 13 13 13 13
24 25 28 29 29 28 27 27 27 25 25 24 25 25 24 24 23 22 21 20 19 19 19 18 18 17 17 16 16 15 15 15 14 14 14 14 14 14 13 13 13 13 13 13
25 24 26 28 29 28 28 27 26 25 23 23 24 24 23 22 21 21 20 20 19 18 18 18 17 17 16 16 15 15 15 14 14 14 14 14 14 13 13 13 13 13 13 13
25 24 25 27 26 26 27 26 25 25 24 23 22 23 23 22 21 21 20 19 18 18 17 17 17 16 16 16 15 15 14 14 14 14 14 13 13 13 13 13 13 13 12 12
24 23 23 25 27 27 26 25 25 23 22 23 22 22 23 22 22 21 20 19 18 17 17 17 16 16 15 15 15 14 14 14 14 14 13 13 13 13 13 13 13 13 12 12
23 22 21 23 25 25 25 25 25 24 23 22 21 21 22 21 21 20 19 19 18 17 17 16 16 15 15 15 14 14 14 14 14 13 13 13 13 13 13 13 12 12 12 12
22 22 21 21 22 23 23 24 25 24 23 21 22 21 21 20 20 20 19 18 17 17 16 16 15 15 15 14 14 14 14 14 13 13 13 13 13 13 12 12 12 12 12 12
22 21 22 22 23 24 24 24 24 24 23 22 22 21 21 20 20 19 18 18 17 16 16 15 15 15 14 14 14 14 13 13 13 13 13 13 13 12 12 12 12 12 12 12
22 21 21 22 23 24 23 24 24 24 23 23 22 21 20 20 20 18 18 17 17 16 15 15 15 14 14 14 14 13 13 13 13 13 13 13 13 12 12 12 12 12 12 12
21 20 20 21 23 23 22 23 23 23 22 22 21 20 20 20 19 18 17 17 16 15 15 14 14 14 14 14 13 13 13 13 13 13 13 12 12 12 12 12 12 12 12 12
20 20 20 20 21 20 21 22 22 22 21 21 21 20 20 19 18 17 17 16 15 15 14 14 14 14 13 13 13 13 13 13 13 13 12 12 12 12 12 12 12 12 12 11
21 20 19 20 20 20 21 21 21 21 20 20 20 20 19 19 18 17 16 16 15 14 14 13 13 13 13 13 13 13 13 13 13 12 12 12 12 12 12 12 12 12 12 12
22 21 20 20 19 18 19 21 21 21 19 19 19 19 18 18 17 17 16 15 15 14 13 13 13 13 13 13 13 13 13 13 13 12 12 12 12 12 12 12 12 12 12 12
21 20 20 20 19 19 20 21 21 19 17 18 18 18 17 17 16 15 15 15 14 14 13 13 13 13 13 13 13 12 12 12 12 12 12 12 12 12 12 12 12 12 12 12
20 20 20 20 19 18 20 20 18 17 17 17 17 17 16 16 15 15 15 14 14 13 13 13 13 13 12 12 12 12 12 12 12 12 12 12 12 12 12 12 12 12 12 12
20 20 19 19 19 19 19 18 18 17 17 17 17 17 16 16 15 15 14 14 13 13 13 13 13 12 12 12 12 12 12 12 12 12 12 12 12 12 12 12 12 12 12 12
20 20 19 19 19 19 18 18 17 17 16 16 16 16 16 15 15 14 14 13 13 13 13 12 12 12 12 12 12 12 12 12 12 12 12 12 12 12 12 12 12 12 12 12
19 19 19 18 19 18 18 17 16 16 16 16 16 16 15 15 14 14 13 13 13 13 12 12 12 12 12 12 12 12 12 12 12 12 12 12 12 12 12 12 12 12 12 12
18 18 18 17 17 17 16 16 16 16 16 16 15 15 15 14 14 14 13 13 13 12 12 12 12 12 12 12 12 12 12 12 12 12 12 12 12 12 12 13 13 12 13 13
Wind_Speed
10 9 8 7 7 8 10 9 8 7 6 5 6 5 4 2 2 2 3 3 4 4 6 7 7 8 7 7 6 5 6 6 4 3 3 3 3 2 2 2 3 2 2 1
8 9 9 8 7 8 8 8 9 7 7 6 5 5 4 4 4 3 3 2 3 5 5 6 6 7 7 7 7 6 6 6 5 4 2 2 2 2 2 1 2 2 2 2
7 5 4 6 7 8 8 7 9 10 9 8 7 7 5 5 4 4 3 3 3 5 6 6 5 5 5 5 6 5 5 5 5 4 3 2 2 2 2 2 2 2 2 2
8 6 6 7 7 8 8 9 11 11 11 8 8 6 5 6 5 4 2 2 1 2 6 6 5 5 4 5 5 4 4 4 5 5 4 4 3 2 2 2 2 2 3 4
8 7 6 6 7 8 9 11 13 13 13 11 8 7 4 5 4 4 3 2 1 2 4 5 5 5 4 4 4 4 4 3 4 4 4 3 2 1 1 1 2 3 3 4
10 6 5 7 8 8 9 12 13 13 11 10 8 8 3 2 3 5 4 2 2 3 4 4 4 5 5 5 5 4 4 3 3 4 4 3 3 2 2 2 2 3 3 3
9 6 5 6 10 8 9 9 7 7 6 7 7 5 1 4 4 6 5 3 4 5 5 4 4 5 5 5 4 4 4 3 2 3 4 3 3 3 4 3 3 3 3 2
9 7 6 7 9 10 9 6 5 8 8 8 8 3 4 8 9 9 7 6 7 6 6 6 5 5 4 4 4 4 3 3 2 1 2 2 2 3 2 2 3 3 2 2
8 9 10 10 10 9 8 7 7 8 10 9 6 0 4 8 10 10 8 7 7 6 5 5 5 5 5 4 4 4 3 2 2 1 1 2 3 3 2 3 4 3 2 2
9 12 11 10 10 8 9 9 7 7 7 8 8 4 1 6 6 6 5 6 7 6 5 5 5 4 4 4 4 3 3 2 2 1 1 1 2 3 3 3 3 3 2 2
10 9 12 10 8 10 9 8 8 6 7 8 8 4 4 6 5 5 5 5 5 5 5 4 4 4 4 4 3 2 2 1 1 1 1 1 1 2 3 3 3 2 1 2
9 7 11 12 9 7 7 7 7 6 7 8 8 4 5 6 6 6 5 5 5 5 5 5 4 4 4 3 2 1 1 1 1 1 1 1 0 1 2 2 2 2 2 2
9 6 9 8 6 6 8 9 9 8 7 7 8 5 3 5 5 6 6 6 5 5 5 5 4 4 3 3 3 2 1 0 1 1 1 1 1 1 2 3 3 2 2 2
4 6 8 9 11 12 12 12 11 9 7 7 8 8 4 4 5 5 5 5 5 5 5 5 4 3 3 3 3 3 2 1 1 1 1 1 1 1 2 3 3 2 2 2
5 7 10 13 14 14 14 13 11 9 8 8 8 6 5 5 5 5 4 4 4 5 5 5 4 3 3 2 2 3 3 2 2 2 2 2 2 2 2 2 3 3 2 3
6 8 12 14 13 12 12 12 10 8 8 7 6 3 4 4 4 4 4 4 4 5 6 6 4 3 2 3 2 2 3 3 2 2 3 2 2 2 2 2 3 3 2 2
7 8 10 11 13 12 6 8 8 7 8 7 6 5 5 5 5 4 3 3 5 5 6 6 7 4 3 2 2 2 3 2 2 3 3 3 2 3 2 3 2 3 2 2
7 8 7 9 10 6 4 7 8 7 6 8 7 6 6 5 4 3 3 4 5 5 6 6 6 5 4 3 3 2 2 2 3 2 3 3 3 3 2 2 3 3 3 3
5 5 6 6 8 7 6 8 8 7 6 8 7 6 6 6 4 3 5 5 4 4 4 4 5 5 4 3 3 3 3 3 3 3 3 4 3 3 3 2 3 3 3 3
4 5 6 7 8 7 6 9 9 7 3 9 9 7 7 6 5 4 6 5 4 4 4 4 5 4 3 3 3 3 4 3 3 3 4 4 3 3 3 3 3 3 3 4
6 7 8 10 9 5 7 11 10 6 6 10 9 7 7 6 6 5 6 5 4 4 4 5 5 4 4 3 2 3 4 4 4 4 3 3 3 3 3 3 3 3 3 4
8 8 8 8 8 5 11 11 8 6 7 9 8 7 6 6 6 5 5 4 3 4 5 5 4 5 4 3 2 3 4 4 4 4 3 4 3 4 3 3 3 3 4 4
6 6 6 5 6 7 9 8 6 6 7 7 7 6 5 6 6 6 6 5 4 4 5 5 5 4 4 3 2 3 4 4 4 4 3 4 4 4 4 3 3 3 3 3
7 7 7 7 6 8 8 8 8 8 8 7 6 6 6 6 6 6 5 5 4 4 4 4 5 5 4 4 3 3 4 4 4 3 3 4 4 4 3 3 2 2 2 2
10 9 9 9 8 8 8 9 10 9 9 8 7 6 6 5 6 6 5 5 4 4 3 4 5 5 5 4 3 3 3 3 3 3 3 4 4 3 3 2 1 2 1 1
8 8 8 8 8 8 9 9 10 10 9 8 7 7 6 6 6 6 5 4 3 4 3 4 5 5 5 4 4 3 3 3 2 3 4 4 4 3 3 2 1 0 1 1
Wind_Direction
241 244 254 255 247 260 278 287 286 288 277 258 244 238 219 212 208 208 197 182 159 163 150 142 143 145 148 152 155 159 165 161 167 175 184 192 198 203 185 190 165 178 223 263
248 247 259 266 268 269 281 291 295 295 292 284 265 256 218 184 191 193 196 159 176 160 142 139 142 149 155 159 160 164 168 169 173 169 176 199 197 205 184 174 154 183 210 253
280 296 286 286 291 303 298 298 305 298 288 277 274 261 212 174 165 159 161 155 206 173 160 150 144 141 144 149 155 170 165 164 170 167 172 190 193 216 197 178 179 188 208 236
283 300 300 299 305 318 304 303 290 281 280 272 263 269 205 175 163 146 142 133 152 156 147 147 147 143 144 140 140 147 155 164 171 175 180 196 208 211 207 195 175 195 222 224
298 307 311 304 306 304 299 303 292 281 273 269 259 266 229 159 157 131 84 29 62 89 130 138 144 137 134 134 132 138 151 157 168 181 178 194 215 213 200 193 189 210 219 218
296 303 303 310 303 295 301 297 288 275 273 267 264 261 239 155 135 118 103 61 29 90 107 104 115 122 121 118 117 122 134 143 163 183 178 198 207 212 211 224 225 236 235 231
310 294 301 313 310 308 315 316 310 296 279 276 275 265 117 97 90 96 107 104 62 70 79 81 96 106 110 107 114 122 127 142 164 185 181 196 213 222 221 228 237 250 252 246
325 323 329 325 311 308 308 300 302 297 297 298 289 276 104 90 90 82 81 78 69 58 58 60 67 72 85 100 109 114 127 135 142 161 176 190 207 234 242 253 271 264 265 265
329 317 316 308 301 297 301 300 302 297 295 288 285 174 102 82 78 73 68 66 64 58 56 57 65 65 70 77 86 100 112 119 126 138 157 197 217 240 251 257 258 267 280 276
325 311 308 307 297 292 305 320 325 310 307 296 292 305 42 95 81 80 75 65 59 47 44 58 58 59 68 73 74 85 93 111 127 154 209 228 232 247 246 258 262 264 269 288
337 317 309 315 317 318 326 331 328 317 310 308 300 317 62 95 92 88 72 61 63 49 39 43 54 54 63 76 77 76 86 109 140 188 214 248 259 272 270 269 266 267 279 274
348 321 309 310 308 329 334 328 323 315 305 304 299 316 61 92 89 83 76 59 52 43 42 46 41 54 50 47 53 71 132 176 194 194 183 183 239 286 285 283 284 289 277 274
340 325 315 320 325 337 333 324 319 311 305 305 300 299 76 80 74 70 64 55 47 44 36 47 41 37 31 19 15 355 341 245 237 240 204 218 240 285 300 285 276 268 263 263
304 302 303 302 305 314 313 307 306 302 301 299 297 303 344 27 49 42 45 49 40 37 30 29 33 24 16 17 11 350 352 342 332 327 297 281 262 270 293 293 285 277 278 280
324 297 301 297 295 299 300 301 302 305 303 295 302 321 351 15 36 37 31 33 29 16 14 16 9 5 3 0 2 357 347 347 346 314 292 284 265 239 258 276 282 279 283 290
327 305 304 296 294 296 299 307 307 307 316 308 303 332 360 22 42 47 31 23 15 8 6 357 349 352 346 341 335 341 333 327 314 297 290 282 278 270 260 258 259 262 268 285
305 310 306 302 313 308 305 341 338 348 356 339 339 357 14 28 25 26 23 13 10 7 355 347 345 340 336 330 324 317 307 302 300 294 291 288 278 277 278 276 265 268 278 284
285 302 301 300 311 304 343 354 350 342 10 8 15 15 13 24 37 41 41 30 13 2 351 342 333 334 331 333 330 304 299 297 291 295 306 305 284 280 277 275 262 257 267 269
233 268 287 295 302 299 324 347 340 341 5 20 18 17 14 19 22 40 38 26 11 356 344 331 324 327 324 316 311 296 304 306 308 313 306 299 297 290 275 271 277 268 261 264
239 241 263 283 294 292 331 340 346 333 335 19 10 6 0 357 337 344 360 357 2 359 344 334 325 325 324 322 318 305 303 307 308 303 297 302 305 299 279 263 261 264 258 260
295 281 278 284 284 293 357 349 347 336 340 348 354 357 357 357 343 331 331 344 1 352 340 334 326 326 318 315 317 319 312 310 307 300 299 307 305 298 289 269 266 266 264 267
303 300 299 298 292 302 3 358 8 348 334 337 344 356 1 351 343 336 336 342 342 335 328 325 323 323 312 299 295 304 305 306 301 296 300 306 303 300 296 284 279 270 263 266
304 315 312 308 304 332 354 0 355 344 331 331 331 342 341 335 331 330 332 331 330 331 326 323 316 313 306 293 282 291 297 297 294 289 296 295 294 292 286 275 276 275 264 265
308 322 309 303 312 327 337 345 351 345 335 327 328 338 335 332 327 325 325 322 324 325 322 317 314 315 311 303 295 281 283 288 292 286 283 274 276 272 271 281 293 284 293 294
302 306 299 295 310 320 324 335 340 337 331 329 333 330 328 325 316 314 313 309 311 314 312 306 308 309 306 302 303 293 288 290 294 288 274 272 268 257 253 248 307 312 325 316
296 296 298 301 318 315 315 322 321 320 322 325 328 325 324 317 312 309 308 304 296 297 298 295 296 298 301 302 304 303 282 279 288 287 283 281 275 259 246 220 214 321 234 160
Height
1480 1480 1478 1474 1471 1472 1472 1473 1473 1469 1462 1465 1469 1469 1469 1471 1473 1476 1479 1481 1483 1485 1488 1490 1492 1494 1495 1496 1497 1499 1501 1502 1503 1504 1505 1506 1506 1507 1508 1508 1508 1509 1509 1509
1478 1476 1469 1466 1465 1467 1469 1472 1471 1466 1460 1463 1467 1470 1468 1470 1473 1476 1479 1481 1482 1484 1486 1488 1490 1492 1493 1494 1495 1497 1498 1499 1500 1502 1503 1505 1505 1505 1506 1506 1506 1506 1507 1507
1475 1469 1465 1465 1466 1469 1469 1472 1471 1471 1464 1462 1467 1474 1470 1471 1472 1474 1476 1479 1481 1483 1485 1487 1489 1491 1492 1493 1494 1495 1496 1498 1498 1499 1501 1502 1503 1503 1504 1504 1504 1504 1504 1504
1471 1466 1465 1467 1468 1470 1476 1467 1466 1466 1469 1471 1469 1482 1475 1472 1472 1474 1476 1478 1480 1481 1483 1486 1488 1489 1490 1491 1492 1494 1495 1496 1497 1498 1498 1500 1501 1501 1501 1502 1502 1502 1502 1502
1471 1466 1467 1470 1469 1468 1469 1463 1463 1462 1465 1468 1466 1477 1475 1470 1475 1475 1477 1479 1480 1481 1483 1485 1487 1489 1489 1490 1491 1492 1494 1495 1495 1496 1496 1497 1499 1499 1500 1500 1500 1500 1500 1499
1468 1466 1466 1467 1465 1464 1463 1465 1463 1461 1462 1476 1469 1475 1479 1473 1474 1475 1478 1481 1482 1483 1483 1485 1487 1488 1489 1490 1490 1491 1493 1493 1494 1494 1495 1496 1496 1497 1497 1498 1498 1498 1497 1497
1475 1468 1466 1467 1468 1465 1465 1475 1485 1486 1486 1482 1464 1470 1480 1472 1472 1474 1477 1481 1483 1483 1484 1485 1486 1487 1487 1489 1489 1490 1491 1492 1493 1493 1493 1494 1494 1495 1495 1496 1496 1495 1495 1494
1488 1483 1470 1467 1470 1472 1470 1476 1493 1502 1493 1481 1468 1473 1475 1469 1472 1475 1479 1481 1482 1484 1485 1486 1487 1487 1488 1489 1490 1490 1491 1491 1492 1492 1492 1492 1492 1493 1494 1494 1494 1493 1493 1492
1495 1490 1472 1469 1466 1467 1471 1471 1470 1480 1481 1485 1476 1474 1474 1472 1474 1477 1481 1483 1485 1485 1486 1487 1488 1489 1490 1489 1490 1490 1490 1490 1491 1491 1492 1492 1492 1492 1492 1492 1492 1492 1491 1490
1489 1493 1477 1468 1466 1464 1465 1467 1474 1483 1494 1497 1486 1479 1482 1480 1481 1482 1483 1485 1486 1487 1488 1489 1490 1490 1491 1491 1490 1490 1490 1490 1491 1491 1491 1491 1491 1491 1491 1490 1490 1489 1489 1488
1490 1496 1485 1475 1475 1475 1473 1475 1477 1481 1484 1495 1498 1491 1478 1480 1482 1484 1486 1487 1488 1489 1490 1489 1490 1491 1491 1491 1491 1491 1491 1490 1491 1491 1491 1491 1490 1490 1489 1489 1488 1487 1486 1486
1495 1498 1496 1484 1473 1470 1473 1477 1481 1492 1493 1489 1493 1495 1479 1480 1483 1485 1487 1489 1489 1490 1490 1490 1491 1491 1491 1491 1491 1491 1491 1491 1491 1491 1490 1490 1489 1488 1488 1487 1486 1486 1484 1484
1501 1504 1506 1495 1485 1478 1479 1478 1478 1481 1486 1492 1498 1496 1482 1482 1484 1486 1488 1490 1491 1492 1491 1491 1492 1492 1492 1492 1491 1491 1491 1491 1490 1490 1489 1488 1487 1487 1486 1485 1484 1484 1483 1482
1503 1504 1509 1512 1500 1488 1486 1481 1479 1481 1489 1494 1492 1489 1485 1486 1487 1489 1490 1491 1492 1493 1492 1493 1493 1493 1492 1492 1491 1491 1491 1490 1490 1489 1488 1487 1486 1485 1484 1484 1482 1482 1481 1481
1503 1505 1501 1496 1489 1486 1483 1480 1478 1480 1483 1489 1488 1487 1488 1488 1489 1490 1492 1493 1493 1494 1493 1493 1493 1493 1493 1492 1491 1491 1491 1490 1489 1488 1487 1486 1485 1484 1483 1482 1481 1480 1479 1479
1503 1506 1502 1497 1486 1482 1483 1479 1476 1477 1479 1481 1483 1488 1488 1489 1490 1492 1493 1494 1494 1494 1494 1494 1493 1493 1492 1492 1491 1491 1490 1489 1488 1487 1486 1485 1483 1482 1482 1481 1480 1479 1478 1478
1504 1507 1506 1500 1489 1486 1489 1484 1481 1481 1482 1483 1486 1489 1488 1489 1491 1493 1494 1495 1495 1495 1495 1494 1494 1493 1492 1491 1490 1490 1488 1488 1487 1486 1485 1483 1482 1481 1480 1480 1479 1478 1477 1476
1507 1507 1506 1502 1498 1505 1494 1483 1482 1483 1485 1485 1486 1487 1489 1490 1492 1494 1494 1495 1495 1495 1495 1494 1493 1493 1492 1491 1490 1488 1487 1486 1486 1485 1484 1482 1481 1480 1479 1478 1477 1476 1476 1475
1502 1505 1508 1506 1505 1500 1491 1487 1486 1487 1490 1490 1490 1490 1491 1492 1492 1494 1495 1496 1496 1495 1495 1494 1493 1492 1491 1490 1489 1488 1487 1485 1485 1484 1483 1481 1480 1479 1478 1476 1476 1475 1475 1474
1498 1500 1505 1505 1510 1511 1500 1490 1488 1489 1493 1493 1492 1492 1493 1493 1493 1495 1495 1495 1494 1494 1494 1493 1492 1491 1489 1488 1487 1486 1485 1484 1483 1482 1481 1480 1479 1478 1476 1475 1474 1474 1474 1473
1501 1501 1503 1503 1504 1500 1497 1492 1490 1499 1503 1497 1495 1495 1495 1495 1496 1497 1495 1495 1494 1493 1492 1491 1490 1489 1488 1487 1486 1484 1483 1482 1482 1481 1480 1478 1477 1476 1475 1474 1473 1473 1473 1472
1503 1504 1503 1502 1505 1507 1498 1495 1500 1504 1500 1498 1497 1496 1497 1496 1496 1496 1495 1494 1493 1492 1491 1490 1489 1487 1486 1485 1484 1483 1482 1481 1480 1479 1478 1477 1476 1475 1474 1473 1472 1472 1471 1471
1501 1503 1503 1505 1506 1502 1501 1501 1502 1501 1500 1499 1498 1497 1497 1496 1495 1495 1494 1493 1492 1491 1490 1489 1488 1486 1485 1484 1483 1481 1480 1479 1478 1478 1476 1475 1474 1473 1473 1472 1472 1471 1471 1470
1502 1501 1501 1501 1500 1501 1501 1501 1501 1501 1500 1499 1497 1497 1496 1495 1494 1494 1492 1491 1490 1489 1488 1487 1486 1485 1483 1482 1481 1480 1479 1478 1477 1476 1475 1474 1473 1472 1472 1472 1471 1471 1470 1469
1505 1504 1502 1501 1501 1501 1501 1501 1501 1500 1499 1498 1497 1496 1495 1494 1493 1492 1491 1490 1489 1488 1487 1486 1485 1483 1482 1481 1480 1479 1478 1476 1476 1475 1473 1473 1472 1472 1471 1471 1470 1470 1469 1469
1505 1504 1504 1503 1503 1503 1502 1501 1501 1499 1498 1497 1496 1494 1494 1493 1492 1490 1489 1488 1487 1486 1485 1484 1483 1482 1481 1479 1478 1477 1476 1475 1474 1473 1472 1472 1471 1471 1471 1470 1470 1469 1469 1468